www.pogodaiklimat.ru

Погода и климат >> Архив погоды >> Украина >> Каменец-Подольский


ПОГОДА в Каменец-Подольском

  • Прогноз погоды в Каменец-Подольском
  • Монитор погоды в Каменец-Подольском

АРХИВ ПОГОДЫ в Каменец-Подольском

Время (UTC), дата Ветер
(напр.,м/с)
 
Видим.   Явления Облачность Т
(С)
Тd
(С)
f
(%)
Тe
(С)
Тes
(С)
Комфортность P
(гПа)
Po
(гПа)
Тmin
(С)
Tmax
(С)
R
(мм)
R24
(мм)
S
(см)
15 13.09 СЗ 1 20 км 8/3 1000 м
[Cu hum Ci fib]
+26.3 +10.0 36 +27 +27 жарко 1024.0 998.4
18 13.09 СЗ 1 10 км 8/0
[Ac trans Ci fib]
+21.8 +11.5 52 +24 +24 комфорт 1025.0 999.0 +27.3
21 13.09 С 1 10 км 6/0
[Ac trans]
+18.0 +11.3 65 +19 +19 1026.0 999.7
00 14.09 штиль 0 10 км ясно +12.5 +9.9 84 +12 +12 1026.0 999.2
03 14.09 штиль 0 10 км 10/0
[Ac und]
+13.6 +10.2 80 +13 +13 1025.0 998.3
06 14.09 СЗ 2 20 км 10/0
[Ac und]
+17.4 +12.7 74 +18 +18 1026.0 999.6 +11.6
09 14.09 СЗ 5 20 км в посл. час ливневой дождь 10/10 540 м
[Cb cap]
+13.8 +12.0 89 +12 +12 1029.0 1002.2
12 14.09 С 5 50 км {ливн. осадки} 4/0
[Ac trans Ci fib]
+19.2 +8.2 49 +20 +23 1027.9 1001.6
15 14.09 СЗ 4 50 км 5/0
[Ac trans Ci fib]
+19.8 +1.7 30 +20 +20 1027.0 1000.7
18 14.09 СЗ 3 10 км 3/0
[Ac trans Ci fib]
+15.5 +3.3 44 +15 +15 1029.0 1002.3 +20.4 0.6
21 14.09 штиль 0 10 км 4/0
[Ci fib]
+7.8 +2.9 71 +7 +7 1031.0 1003.5
00 15.09 штиль 0 10 км 3/0
[Ci fib]
+5.1 +3.1 87 +4 +4 1030.0 1002.3
03 15.09 штиль 0 10 км 3/0
[Ci fib]
+3.2 +1.9 91 +2 +2 1030.0 1002.1
06 15.09 штиль 0 20 км 4/0
[Ci fib]
+7.3 +5.3 87 +6 +8 1029.0 1001.6 +2.6
09 15.09 ЮЗ 1 10 км 3 балла +18.0 +4.2 40 +19 +27 1027.0 1000.6
12 15.09 З 2 50 км 6/0
[Ci fib]
+20.8 +5.6 37 +22 +26 комфорт 1024.0 997.9
15 15.09 З 2 50 км 6/0
[Ci fib]
+21.4 +4.9 34 +22 +22 комфорт 1021.0 995.1
18 15.09 штиль 0 10 км 3/0
[Ci fib]
+12.4 +6.9 69 +12 +12 1021.0 994.3 +22.3
21 15.09 штиль 0 10 км ясно +8.6 +5.7 82 +8 +8 1020.0 992.9
00 16.09 штиль 0 10 км 3/0
[Ci fib]
+7.4 +5.9 90 +6 +6 1019.0 991.8
03 16.09 штиль 0 10 км 1/0
[Ci fib]
+5.2 +4.5 95 +4 +4 1019.0 991.6
06 16.09 штиль 0 20 км 8/0
[Ci fib]
+12.6 +5.5 62 +12 +12 1018.0 991.4 +4.4
09 16.09 ЮЗ 4 50 км 9/0
[Ci fib]
+22.2 +7.9 40 +23 +23 комфорт 1016.0 990.3
12 16.09 ЮЗ 5 50 км 8/0
[Ac trans Ci fib]
+25.4 +9.2 36 +26 +26 жарко 1013.0 987.6
15 16.09 З 4 50 км 8/0
[Ac trans Ci fib]
+24.5 +9.2 38 +25 +25 комфорт 1012.0 986.6
18 16.09 СЗ 3 10 км 9/0
[Ac trans]
+18.4 +10.0 58 +19 +19 1013.0 987.0 +26.5
21 16.09 СЗ 3 10 км 10/0
[Ac und]
+17.2 +9.4 60 +17 +17 1013.0 986.9
00 17.09 СЗ 3 4000 м слаб. ливневой дождь 10/8 600 м
[Cb cap Ac und]
+12.6 +11.3 92 +11 +11 1014.0 987.5 3
03 17.09 штиль 0 10 км {ливн. осадки} 10/5 600 м
[Cb cap Ac und]
+12.4 +11.5 94 +12 +12 1014.0 987.5
06 17.09 С 1 10 км {ливн. осадки} 10/0
[Ac und]
+12.7 +11.6 93 +13 +13 1014.0 987.5 +11.5 4
09 17.09 СВ 2 20 км 10/5 600 м
[Cb cap Ac und]
+14.7 +9.3 70 +14 +14 1014.0 987.7
12 17.09 С 2 50 км 8/4 600 м
[Cb cap Ac trans]
+15.6 +9.7 68 +16 +16 1013.0 986.8
15 17.09 ЮЗ 3 50 км 6/3 600 м
[Cb cap Ac trans]
+15.4 +10.8 74 +15 +15 1011.0 984.8
18 17.09 ЮЗ 2 10 км 9/0
[Ac trans]
+13.6 +11.1 85 +13 +13 1011.0 984.7 +17.0
21 17.09 Ю 1 10 км в посл. час ливневой дождь 8/0
[Ac trans]
+13.1 +11.3 89 +13 +13 1010.0 983.7
00 18.09 ЮЗ 1 10 км слаб. ливневой дождь 10/8 600 м
[Cb cap Ac und]
+12.6 +10.7 88 +13 +13 1009.0 982.6 0.6
03 18.09 ЮЗ 3 10 км {ливн. осадки} 8/0
[Ac trans]
+11.8 +10.7 93 +10 +10 1010.0 983.5
06 18.09 СЗ 4 50 км {ливн. осадки} 6/4 600 м
[Cb cap Ac trans]
+10.1 +2.7 60 +8 +8 1012.0 985.3 +10.1 1
09 18.09 СЗ 10 50 км 8/8 600 м
[Cb cap]
+13.0 +1.6 46 +10 +10 1014.0 987.5
12 18.09 СЗ 11 50 км 8/8 600 м
[Cb cap]
+13.4 +1.1 43 +10 +10 1015.0 988.5
15 18.09 СЗ 10 50 км 9/6 600 м
[Cb cap Ac trans]
+13.2 +0.6 42 +10 +10 1017.0 990.4
18 18.09 СЗ 4 10 км 8/0
[Ac trans]
+12.1 +2.3 51 +10 +10 1020.0 993.2 +14.9
21 18.09 СЗ 3 10 км ясно +9.6 +2.2 60 +8 +8 1021.0 994.0
00 19.09 СЗ 3 10 км ясно +6.2 +2.3 76 +3 +3 1022.0 994.6
03 19.09 штиль 0 10 км ясно +2.0 +0.7 91 +1 +1 1022.0 994.2
06 19.09 С 1 10 км ясно +6.2 +3.0 80 +5 +7 1023.0 995.6 +0.9
09 19.09 З 3 10 км 10 баллов +13.3 +3.6 52 +12 +12 1022.0 995.3
12 19.09 СЗ 5 50 км {ливн. осадки} 8/8 600 м
[Cb cap]
+13.4 +4.3 54 +12 +12 1022.0 995.3 0.3
15 19.09 СЗ 4 10 км 6 баллов +13.7 +1.3 43 +12 +13 1022.0 995.3
18 19.09 СЗ 2 10 км 3/0
[Ac trans]
+8.5 +3.9 73 +7 +7 1023.0 995.8 +15.2 0.3
21 19.09 штиль 0 10 км 3 балла +2.8 +1.2 89 +2 +2 1024.0 996.2
00 20.09 штиль 0 10 км 6/0
[Ac trans Ci fib]
+3.4 +2.1 91 +2 +2 1024.0 996.3
03 20.09 штиль 0 10 км 3/0
[Ci fib]
+2.0 +0.8 92 +1 +1 1024.0 996.1
06 20.09 СЗ 1 10 км 10 баллов +6.4 +5.0 91 +5 +5 1024.0 996.6 +1.5
09 20.09 З 4 50 км 9 баллов +10.8 +3.3 60

 

Местоположение метеостанции Каменец-Подольский (Хмельницкая область, Украина): широта 48.65 долгота 26.67 высота над уровнем моря 222 м.

В архиве по умолчанию представлена погода в Каменец-Подольском за последнюю неделю. Архивные данные за месяц целиком и за предыдущие месяцы, начиная с января 2011 года, Вы можете получить, выбрав интересующий диапазон дат из раскрывающегося списка и нажав кнопку "Ввод!".


*Определитесь, кто Вы:
робот инопланетянин человек

Внимание! Время в таблицах - всемирное. Для получения местного времени необходимо прибавить поправку, которая равна 2 ч.

Смотрите также архив погоды в соседних городах и на ближайших метеорологических станциях:

Погода в Бричанах (Молдова) (45 км)
Погода в Новой Ушице (Хмельницкая область, Украина) (49 км)
Погода в Дарабани (Румыния) (50 км)
Погода в Новоднестровске (Черновицкая область, Украина) (58 км)
Погода в Черновцах (Черновицкая область, Украина) (65 км)
Погода в Чорткове (Тернопольская область, Украина) (76 км)
Погода в Могилев-Подольском (Винницкая область, Украина) (85 км)
Погода в Хмельницком (Хмельницкая область, Украина) (90 км)
Погода в Штефанешты (Румыния) (100 км)
Погода в Хмельнике (Винницкая область, Украина) (101 км)

Пояснения к столбцам:

Ветер - указаны скорость ветра в м/с - средняя за 10 мин, порывы в срок и между сроками (в фигурных скобках) и направление, откуда дует ветер: С - северный, СВ - северо-восточный, В - восточный, ЮВ - юго-восточный, Ю - южный, ЮЗ - юго-западный, З - западный, СЗ - северо-западный.
Видимость - горизонтальная дальность видимости в метрах или километрах. При видимости от 1 до 10 км при отсутствии осадков обычно наблюдается дымка, при ухудшении видимости до 1 км и менее - туман. В сухую погоду видимость может ухудшаться дымом, пылью или мглою.
Явления - указаны атмосферные явления, наблюдавшиеся в срок или в последний час перед сроком; фигурными скобками обозначены явления, наблюдавшиеся между сроками (за 1-3 часа до срока); квадратными скобками обозначены град или гололедные отложения с указанием их диаметра в мм.
Облачность - указаны через наклонную черту общая и нижняя облачность в баллах и высота нижней границы облаков в метрах; квадратными скобками обозначены формы облаков: Ci - перистые, Cs - перисто-слоистые, Cc - перисто-кучевые, Ac - высококучевые, As - высокослоистые, Sc - слоисто-кучевые, Ns - слоисто-дождевые, Cu - кучевые, Cb - кучево-дождевые. Подробнее классификацию облаков см. в Атласе облаков (PDF).
T - Температура воздуха - температура, измеренная на высоте 2 м над землей.
Td - Температура точки росы - температура, при понижении до которой содержащийся в воздухе водяной пар достигнет насыщения.
f - Относительная влажность воздуха - влажноcть воздуха, измеренная на высоте 2 м над землей.
Te - Эффективная температура - температура, которую ощущает одетый по сезону человек в тени. Характеристика душности погоды. При расчете учитывается влияние влажности воздуха и скорости ветра на теплоощущения человека.
Tes - Эффективная температура на солнце - температура, которую ощущает человек, с поправкой на солнечный нагрев. Характеристика знойности погоды. Зависит от высоты солнца над горизонтом, облачности и скорости ветра. Ночью, в пасмурную погоду, а также при ветре 12 м/с и более поправка равна нулю.
P - Атмосферное давление - приведенное к уровню моря атмосферное давление.
Po - Атмосферное давление - измеренное на уровне метеостанции атмосферное давление.
Tmin - Минимальная температура - минимум температуры воздуха на высоте 2 м над землей.
Tmax - Максимальная температура - максимум температуры воздуха на высоте 2 м над землей.
R - Количество осадков - Количество выпавших осадков за период времени, мм. При наведении курсора мыши на число - период времени, за который выпало указанное количество осадков.
R24 - Количество осадков - Количество выпавших осадков за 24 часа, мм.
S - Снежный покров - Высота снежного покрова, см. При наведении курсора мыши на число - состояние снежного покрова и степень покрытия местности в баллах.